This is the latest recevied weather packets stored in our database for station/object DC0PP-10. If no packets are shown the sender has not sent any weather packets the latest 10 day(s).
| Time | Temp. | Humidity | Pressure | Rain* | Wind** | Luminosity | Snow |
|---|---|---|---|---|---|---|---|
| 1777915550 | 20° C | 65% | 1014.6 hPa | - | - | - | - |
| 1777914650 | 20° C | 62% | 1014.7 hPa | - | - | - | - |
| 1777913750 | 20° C | 56% | 1014.6 hPa | - | - | - | - |
| 1777912850 | 21.11° C | 54% | 1014.6 hPa | - | - | - | - |
| 1777911949 | 21.11° C | 50% | 1014.6 hPa | - | - | - | - |
| 1777911049 | 21.11° C | 49% | 1014.6 hPa | - | - | - | - |
| 1777910148 | 21.11° C | 50% | 1014.6 hPa | - | - | - | - |
| 1777909248 | 20.56° C | 52% | 1014.5 hPa | - | - | - | - |
| 1777908348 | 21.11° C | 52% | 1014.6 hPa | - | - | - | - |
| 1777907448 | 21.11° C | 50% | 1014.5 hPa | - | - | - | - |
| 1777906548 | 21.67° C | 49% | 1014.4 hPa | - | - | - | - |
| 1777905648 | 22.22° C | 45% | 1014.3 hPa | - | - | - | - |
| 1777904748 | 22.78° C | 45% | 1014.2 hPa | - | - | - | - |
| 1777903848 | 22.78° C | 44% | 1014.2 hPa | - | - | - | - |
| 1777902947 | 23.33° C | 43% | 1014.3 hPa | - | - | - | - |
| 1777902047 | 23.89° C | 43% | 1014.3 hPa | - | - | - | - |
| 1777901147 | 22.78° C | 42% | 1014.3 hPa | - | - | - | - |
| 1777900246 | 22.78° C | 43% | 1014.5 hPa | - | - | - | - |
| 1777899346 | 22.78° C | 45% | 1014.5 hPa | - | - | - | - |
| 1777898446 | 22.22° C | 44% | 1014.6 hPa | - | - | - | - |
| 1777897549 | 22.78° C | 46% | 1014.7 hPa | - | - | - | - |
| 1777896649 | 23.33° C | 45% | 1014.8 hPa | - | - | - | - |
| 1777895749 | 23.89° C | 43% | 1014.9 hPa | - | - | - | - |
| 1777894849 | 23.89° C | 42% | 1015 hPa | - | - | - | - |
| 1777893949 | 24.44° C | 42% | 1015.1 hPa | - | - | - | - |
* Rain since midnight (hover to see other rain measurements)
** Current wind speed in m/s (hover to see current wind gust speed)